N42J KMYR-

Flight info

Callsign N42J
Flight time N/A
Altitude VFR/045
Route
Aircraft PC12/L-VGD/C

Departure

Time 2026-04-23 22:42
Airport Myrtle Beach International Airport (KMYR)

Arrival

Time N/A
Airport -
Time Latitude Longitude Altitude Speed Heading
2026-04-23 22:36 33.67481 -78.93256 22 ft 0 kts 170°
2026-04-23 22:37 33.67471 -78.93251 22 ft 5 kts 143°
2026-04-23 22:37 33.67478 -78.93157 22 ft 17 kts 76°
2026-04-23 22:37 33.67549 -78.93092 22 ft 19 kts 348°
2026-04-23 22:38 33.67695 -78.93129 22 ft 18 kts 347°
2026-04-23 22:38 33.67855 -78.93168 22 ft 27 kts 345°
2026-04-23 22:38 33.68066 -78.93224 22 ft 33 kts 347°
2026-04-23 22:38 33.68284 -78.93276 22 ft 28 kts 346°
2026-04-23 22:39 33.68503 -78.93331 22 ft 34 kts 347°
2026-04-23 22:39 33.68747 -78.93393 22 ft 36 kts 349°
2026-04-23 22:39 33.68981 -78.93450 20 ft 30 kts 348°
2026-04-23 22:39 33.69155 -78.93470 19 ft 21 kts 26°
2026-04-23 22:40 33.69220 -78.93288 19 ft 17 kts 79°
2026-04-23 22:40 33.69230 -78.93237 19 ft 0 kts 79°
2026-04-23 22:40 33.69238 -78.93162 19 ft 14 kts 101°
2026-04-23 22:41 33.69134 -78.93123 19 ft 20 kts 168°
2026-04-23 22:41 33.68769 -78.93030 23 ft 89 kts 168°
2026-04-23 22:41 33.68067 -78.92810 243 ft 117 kts 168°
2026-04-23 22:41 33.67219 -78.92582 610 ft 134 kts 171°
2026-04-23 22:42 33.66269 -78.92320 1108 ft 142 kts 167°
2026-04-23 22:42 33.65261 -78.92003 1497 ft 157 kts 169°
2026-04-23 22:42 33.64147 -78.91695 1843 ft 171 kts 175°
2026-04-23 22:42 33.63049 -78.92123 2221 ft 174 kts 223°
2026-04-23 22:43 33.62194 -78.93202 2575 ft 184 kts 231°
2026-04-23 22:43 33.61364 -78.94434 2914 ft 192 kts 243°
2026-04-23 22:43 33.61026 -78.95957 3300 ft 196 kts 258°
2026-04-23 22:43 33.60731 -78.97577 3647 ft 202 kts 259°
2026-04-23 22:44 33.60401 -78.99235 3980 ft 208 kts 255°
2026-04-23 22:44 33.59886 -79.00864 4308 ft 213 kts 247°
2026-04-23 22:44 33.59197 -79.02447 4637 ft 217 kts 242°
2026-04-23 22:44 33.58387 -79.03981 4972 ft 220 kts 238°